Time,TemperatureF,DewpointF,PressureIn,WindDirection,WindDirectionDegrees,WindSpeedMPH,WindSpeedGustMPH,Humidity,HourlyPrecipIn,Conditions,Clouds,dailyrainin,SoftwareType,DateUTC
2013-02-03 00:09:00,6.5,1.0,29.96,WSW,248,0.0,-999.0,79,-99.99,,,0.00,weatherlink.com 1.10,2013-02-03 06:09:00,
2013-02-03 00:24:00,6.5,1.0,29.96,WSW,248,0.0,-999.0,79,-99.99,,,0.00,weatherlink.com 1.10,2013-02-03 06:24:00,
2013-02-03 00:39:00,6.5,1.0,29.95,WSW,248,0.0,-999.0,79,-99.99,,,0.00,weatherlink.com 1.10,2013-02-03 06:39:00,
2013-02-03 00:54:00,6.7,2.0,29.96,WSW,248,0.0,-999.0,79,-99.99,,,0.00,weatherlink.com 1.10,2013-02-03 06:54:00,
2013-02-03 01:09:00,6.7,2.0,29.96,WSW,248,0.0,-999.0,79,-99.99,,,0.00,weatherlink.com 1.10,2013-02-03 07:09:00,
2013-02-03 01:24:00,6.7,2.0,29.95,WSW,248,0.0,-999.0,79,-99.99,,,0.00,weatherlink.com 1.10,2013-02-03 07:24:00,
2013-02-03 01:39:00,6.7,2.0,29.94,WSW,248,0.0,-999.0,80,-99.99,,,0.00,weatherlink.com 1.10,2013-02-03 07:39:00,
2013-02-03 01:54:00,6.9,2.0,29.94,WSW,248,0.0,-999.0,80,-99.99,,,0.00,weatherlink.com 1.10,2013-02-03 07:54:00,
2013-02-03 02:10:00,6.9,2.0,29.93,WSW,248,0.0,-999.0,80,-99.99,,,0.00,weatherlink.com 1.10,2013-02-03 08:10:00,
2013-02-03 02:25:00,6.9,2.0,29.94,WSW,248,0.0,-999.0,80,-99.99,,,0.00,weatherlink.com 1.10,2013-02-03 08:25:00,
2013-02-03 02:40:00,7.0,2.0,29.94,WSW,248,0.0,-999.0,80,-99.99,,,0.00,weatherlink.com 1.10,2013-02-03 08:40:00,
2013-02-03 02:55:00,7.0,2.0,29.95,WSW,248,0.0,-999.0,81,-99.99,,,0.00,weatherlink.com 1.10,2013-02-03 08:55:00,
2013-02-03 03:10:00,7.2,3.0,29.93,WSW,248,0.0,-999.0,81,-99.99,,,0.00,weatherlink.com 1.10,2013-02-03 09:10:00,
2013-02-03 03:25:00,7.4,3.0,29.94,West,261,1.0,-999.0,81,-99.99,,,0.00,weatherlink.com 1.10,2013-02-03 09:25:00,
2013-02-03 03:40:00,7.6,3.0,29.94,West,261,0.0,-999.0,81,-99.99,,,0.00,weatherlink.com 1.10,2013-02-03 09:40:00,
2013-02-03 03:55:00,7.7,3.0,29.94,West,279,0.0,-999.0,81,-99.99,,,0.00,weatherlink.com 1.10,2013-02-03 09:55:00,
2013-02-03 04:09:00,7.9,3.0,29.94,NW,312,0.0,-999.0,81,-99.99,,,0.00,weatherlink.com 1.10,2013-02-03 10:09:00,
2013-02-03 04:24:00,8.1,3.0,29.95,NE,53,0.0,-999.0,81,-99.99,,,0.00,weatherlink.com 1.10,2013-02-03 10:24:00,
2013-02-03 04:39:00,8.3,4.0,29.95,East,97,0.0,-999.0,81,-99.99,,,0.00,weatherlink.com 1.10,2013-02-03 10:39:00,
2013-02-03 04:55:00,8.6,4.0,29.96,WNW,284,3.0,-999.0,80,-99.99,,,0.00,weatherlink.com 1.10,2013-02-03 10:55:00,
2013-02-03 05:10:00,8.6,3.0,29.96,NNW,336,1.0,-999.0,79,-99.99,,,0.00,weatherlink.com 1.10,2013-02-03 11:10:00,
2013-02-03 05:25:00,8.4,3.0,29.97,North,5,2.0,-999.0,78,-99.99,,,0.00,weatherlink.com 1.10,2013-02-03 11:25:00,
2013-02-03 05:40:00,8.4,3.0,29.97,NNE,19,4.0,-999.0,77,-99.99,,,0.00,weatherlink.com 1.10,2013-02-03 11:40:00,
2013-02-03 05:55:00,8.4,3.0,29.98,WNW,299,1.0,-999.0,77,-99.99,,,0.00,weatherlink.com 1.10,2013-02-03 11:55:00,
2013-02-03 06:10:00,8.3,2.0,29.98,NW,319,0.0,-999.0,76,-99.99,,,0.00,weatherlink.com 1.10,2013-02-03 12:10:00,
2013-02-03 06:26:00,8.3,2.0,30.00,West,267,3.0,-999.0,76,-99.99,,,0.00,weatherlink.com 1.10,2013-02-03 12:26:00,
2013-02-03 06:41:00,8.1,2.0,29.99,WNW,288,1.0,-999.0,75,-99.99,,,0.00,weatherlink.com 1.10,2013-02-03 12:41:00,
2013-02-03 06:56:00,7.9,2.0,30.00,NNE,29,0.0,-999.0,75,-99.99,,,0.00,weatherlink.com 1.10,2013-02-03 12:56:00,
2013-02-03 07:10:00,7.7,1.0,30.00,NNW,335,0.0,-999.0,74,-99.99,,,0.00,weatherlink.com 1.10,2013-02-03 13:10:00,
2013-02-03 07:25:00,7.4,0.0,30.00,ENE,71,0.0,-999.0,73,-99.99,,,0.00,weatherlink.com 1.10,2013-02-03 13:25:00,
2013-02-03 07:40:00,6.9,0.0,30.01,WNW,284,1.0,-999.0,73,-99.99,,,0.00,weatherlink.com 1.10,2013-02-03 13:40:00,
2013-02-03 07:55:00,6.5,0.0,30.01,West,273,0.0,-999.0,74,-99.99,,,0.00,weatherlink.com 1.10,2013-02-03 13:55:00,
2013-02-03 08:10:00,6.5,0.0,30.02,North,11,2.0,-999.0,74,-99.99,,,0.00,weatherlink.com 1.10,2013-02-03 14:10:00,
2013-02-03 08:25:00,6.5,0.0,30.01,NE,36,0.0,-999.0,74,-99.99,,,0.00,weatherlink.com 1.10,2013-02-03 14:25:00,
2013-02-03 08:41:00,7.0,0.0,30.02,WNW,283,0.0,-999.0,74,-99.99,,,0.00,weatherlink.com 1.10,2013-02-03 14:41:00,
2013-02-03 08:56:00,7.4,0.0,30.01,NE,34,2.0,-999.0,73,-99.99,,,0.00,weatherlink.com 1.10,2013-02-03 14:56:00,
2013-02-03 09:11:00,7.7,0.0,30.02,NW,306,2.0,-999.0,72,-99.99,,,0.00,weatherlink.com 1.10,2013-02-03 15:11:00,
2013-02-03 09:26:00,7.9,0.0,30.03,WNW,303,0.0,-999.0,71,-99.99,,,0.00,weatherlink.com 1.10,2013-02-03 15:26:00,
2013-02-03 09:41:00,8.3,1.0,30.03,NW,317,2.0,-999.0,71,-99.99,,,0.00,weatherlink.com 1.10,2013-02-03 15:41:00,
2013-02-03 09:56:00,8.6,0.0,30.03,WNW,294,4.0,-999.0,69,-99.99,,,0.00,weatherlink.com 1.10,2013-02-03 15:56:00,
2013-02-03 10:11:00,9.0,0.0,30.03,WNW,290,3.0,-999.0,68,-99.99,,,0.00,weatherlink.com 1.10,2013-02-03 16:11:00,
2013-02-03 10:26:00,10.2,1.0,30.03,West,263,2.0,-999.0,66,-99.99,,,0.00,weatherlink.com 1.10,2013-02-03 16:26:00,
2013-02-03 10:41:00,11.7,1.0,30.03,West,277,1.0,-999.0,63,-99.99,,,0.00,weatherlink.com 1.10,2013-02-03 16:41:00,
2013-02-03 10:56:00,12.4,1.0,30.02,NW,323,2.0,-999.0,61,-99.99,,,0.00,weatherlink.com 1.10,2013-02-03 16:56:00,
2013-02-03 11:11:00,12.8,1.0,30.02,NNE,15,1.0,-999.0,59,-99.99,,,0.00,weatherlink.com 1.10,2013-02-03 17:11:00,
2013-02-03 11:27:00,13.6,1.0,30.02,West,276,3.0,-999.0,58,-99.99,,,0.00,weatherlink.com 1.10,2013-02-03 17:27:00,
2013-02-03 11:42:00,14.0,1.0,30.02,North,360,3.0,-999.0,56,-99.99,,,0.00,weatherlink.com 1.10,2013-02-03 17:42:00,
2013-02-03 11:57:00,14.3,1.0,30.02,WNW,291,2.0,-999.0,55,-99.99,,,0.00,weatherlink.com 1.10,2013-02-03 17:57:00,
2013-02-03 12:11:00,14.1,1.0,30.01,West,271,6.0,-999.0,55,-99.99,,,0.00,weatherlink.com 1.10,2013-02-03 18:11:00,
2013-02-03 12:26:00,14.4,1.0,30.01,West,275,3.0,-999.0,55,-99.99,,,0.00,weatherlink.com 1.10,2013-02-03 18:26:00,
2013-02-03 12:41:00,14.6,0.0,30.01,West,276,4.0,-999.0,53,-99.99,,,0.00,weatherlink.com 1.10,2013-02-03 18:41:00,
2013-02-03 12:56:00,14.4,0.0,30.01,WNW,297,2.0,-999.0,52,-99.99,,,0.00,weatherlink.com 1.10,2013-02-03 18:56:00,
2013-02-03 13:12:00,14.3,0.0,30.01,North,355,1.0,-999.0,53,-99.99,,,0.00,weatherlink.com 1.10,2013-02-03 19:12:00,
2013-02-03 13:27:00,14.8,0.0,30.01,East,92,1.0,-999.0,52,-99.99,,,0.00,weatherlink.com 1.10,2013-02-03 19:27:00,
2013-02-03 13:42:00,15.4,0.0,30.00,WNW,290,3.0,-999.0,51,-99.99,,,0.00,weatherlink.com 1.10,2013-02-03 19:42:00,
2013-02-03 13:57:00,15.2,-1.0,29.99,NNE,26,2.0,-999.0,50,-99.99,,,0.00,weatherlink.com 1.10,2013-02-03 19:57:00,
2013-02-03 14:12:00,15.7,0.0,29.99,WNW,293,3.0,-999.0,50,-99.99,,,0.00,weatherlink.com 1.10,2013-02-03 20:12:00,
2013-02-03 14:27:00,14.9,0.0,29.99,WNW,295,1.0,-999.0,51,-99.99,,,0.00,weatherlink.com 1.10,2013-02-03 20:27:00,
2013-02-03 14:42:00,14.3,0.0,29.99,NW,312,1.0,-999.0,53,-99.99,,,0.00,weatherlink.com 1.10,2013-02-03 20:42:00,
2013-02-03 14:57:00,14.4,0.0,29.99,WNW,295,2.0,-999.0,53,-99.99,,,0.00,weatherlink.com 1.10,2013-02-03 20:57:00,
2013-02-03 15:12:00,15.2,0.0,29.99,WSW,246,4.0,-999.0,52,-99.99,,,0.00,weatherlink.com 1.10,2013-02-03 21:12:00,
2013-02-03 15:28:00,14.6,0.0,29.99,North,355,2.0,-999.0,52,-99.99,,,0.00,weatherlink.com 1.10,2013-02-03 21:28:00,
2013-02-03 15:43:00,13.8,0.0,29.99,WNW,288,0.0,-999.0,54,-99.99,,,0.00,weatherlink.com 1.10,2013-02-03 21:43:00,
2013-02-03 15:58:00,13.5,0.0,29.99,West,263,0.0,-999.0,55,-99.99,,,0.00,weatherlink.com 1.10,2013-02-03 21:58:00,
2013-02-03 16:13:00,13.1,0.0,29.99,North,355,1.0,-999.0,56,-99.99,,,0.00,weatherlink.com 1.10,2013-02-03 22:13:00,
2013-02-03 16:28:00,12.9,0.0,29.98,NE,51,1.0,-999.0,57,-99.99,,,0.00,weatherlink.com 1.10,2013-02-03 22:28:00,
2013-02-03 16:43:00,12.8,0.0,29.98,WNW,293,0.0,-999.0,58,-99.99,,,0.00,weatherlink.com 1.10,2013-02-03 22:43:00,
2013-02-03 16:58:00,12.8,0.0,29.97,ENE,59,1.0,-999.0,58,-99.99,,,0.00,weatherlink.com 1.10,2013-02-03 22:58:00,
2013-02-03 17:13:00,12.6,0.0,29.98,NE,36,0.0,-999.0,58,-99.99,,,0.00,weatherlink.com 1.10,2013-02-03 23:13:00,
2013-02-03 17:29:00,12.4,0.0,29.98,West,270,0.0,-999.0,59,-99.99,,,0.00,weatherlink.com 1.10,2013-02-03 23:29:00,
2013-02-03 17:44:00,12.4,0.0,29.98,WNW,282,0.0,-999.0,59,-99.99,,,0.00,weatherlink.com 1.10,2013-02-03 23:44:00,
2013-02-03 17:59:00,12.3,1.0,29.98,NW,321,0.0,-999.0,60,-99.99,,,0.00,weatherlink.com 1.10,2013-02-03 23:59:00,
2013-02-03 18:14:00,12.3,1.0,29.98,NNW,338,0.0,-999.0,61,-99.99,,,0.00,weatherlink.com 1.10,2013-02-04 00:14:00,
2013-02-03 18:29:00,12.3,1.0,29.98,NNW,338,0.0,-999.0,62,-99.99,,,0.00,weatherlink.com 1.10,2013-02-04 00:29:00,
2013-02-03 18:44:00,12.3,1.0,29.98,NNW,338,1.0,-999.0,61,-99.99,,,0.00,weatherlink.com 1.10,2013-02-04 00:44:00,
2013-02-03 18:59:00,12.3,1.0,29.98,NNW,338,0.0,-999.0,62,-99.99,,,0.00,weatherlink.com 1.10,2013-02-04 00:59:00,
2013-02-03 19:14:00,12.3,1.0,29.99,NNW,338,0.0,-999.0,62,-99.99,,,0.00,weatherlink.com 1.10,2013-02-04 01:14:00,
2013-02-03 19:29:00,12.3,2.0,29.99,NNW,338,0.0,-999.0,63,-99.99,,,0.00,weatherlink.com 1.10,2013-02-04 01:29:00,
2013-02-03 19:44:00,12.1,2.0,29.99,NNW,338,0.0,-999.0,63,-99.99,,,0.00,weatherlink.com 1.10,2013-02-04 01:44:00,
2013-02-03 19:59:00,11.9,2.0,29.99,NNW,338,0.0,-999.0,64,-99.99,,,0.00,weatherlink.com 1.10,2013-02-04 01:59:00,
2013-02-03 20:14:00,11.7,2.0,29.99,NNW,338,0.0,-999.0,64,-99.99,,,0.00,weatherlink.com 1.10,2013-02-04 02:14:00,
2013-02-03 20:29:00,11.6,2.0,29.99,NNW,338,0.0,-999.0,65,-99.99,,,0.00,weatherlink.com 1.10,2013-02-04 02:29:00,
2013-02-03 20:44:00,11.2,2.0,29.98,NNW,338,0.0,-999.0,66,-99.99,,,0.00,weatherlink.com 1.10,2013-02-04 02:44:00,
2013-02-03 20:59:00,10.9,2.0,29.99,NNW,338,0.0,-999.0,67,-99.99,,,0.00,weatherlink.com 1.10,2013-02-04 02:59:00,
2013-02-03 21:15:00,10.7,2.0,29.99,NNW,338,0.0,-999.0,68,-99.99,,,0.00,weatherlink.com 1.10,2013-02-04 03:15:00,
2013-02-03 21:30:00,10.5,2.0,29.98,NNW,338,0.0,-999.0,69,-99.99,,,0.00,weatherlink.com 1.10,2013-02-04 03:30:00,
2013-02-03 21:45:00,10.5,3.0,29.98,NNW,338,0.0,-999.0,70,-99.99,,,0.00,weatherlink.com 1.10,2013-02-04 03:45:00,
2013-02-03 22:00:00,10.7,3.0,29.99,NNW,338,0.0,-999.0,72,-99.99,,,0.00,weatherlink.com 1.10,2013-02-04 04:00:00,
2013-02-03 22:16:00,10.9,4.0,29.98,NNW,338,0.0,-999.0,73,-99.99,,,0.00,weatherlink.com 1.10,2013-02-04 04:16:00,
2013-02-03 22:31:00,11.1,4.0,29.98,NNW,338,0.0,-999.0,73,-99.99,,,0.00,weatherlink.com 1.10,2013-02-04 04:31:00,
2013-02-03 22:46:00,11.1,4.0,29.98,NNW,338,0.0,-999.0,74,-99.99,,,0.00,weatherlink.com 1.10,2013-02-04 04:46:00,
2013-02-03 23:01:00,11.2,4.0,29.97,NNW,338,0.0,-999.0,74,-99.99,,,0.00,weatherlink.com 1.10,2013-02-04 05:01:00,
2013-02-03 23:15:00,11.2,5.0,29.97,NNW,338,0.0,-999.0,75,-99.99,,,0.00,weatherlink.com 1.10,2013-02-04 05:15:00,
2013-02-03 23:30:00,11.2,5.0,29.97,NNW,338,0.0,-999.0,76,-99.99,,,0.00,weatherlink.com 1.10,2013-02-04 05:30:00,
2013-02-03 23:45:00,11.2,5.0,29.97,NNW,338,0.0,-999.0,77,-99.99,,,0.00,weatherlink.com 1.10,2013-02-04 05:45:00,